FW8575 Weather Reports


time (UTC)temp
F
wind
direction
speed
knots
gust
knots
rain 1hr
in
rain 24hr
in
rain mn
in
humidity
%
barometer
mb
20260903011505 84 201 2.6 4.3 0.00 0.00 0.00 79 1010.9
20260903011006 84 215 2.6 5.2 0.00 0.00 0.00 79 1010.8
20260903010504 84 184 2.6 5.2 0.00 0.00 0.00 79 1010.8
20260903010005 84 206 2.6 6.1 0.00 0.00 0.00 79 1010.8
20260903005505 84 215 2.6 6.1 0.00 0.00 0.00 78 1010.7
20260903005006 85 194 3.5 6.1 0.00 0.00 0.00 78 1010.7
20260903004505 85 201 3.5 5.2 0.00 0.00 0.00 78 1010.5
20260903004006 85 189 2.6 6.1 0.00 0.00 0.00 77 1010.4
20260903003505 85 202 0.9 4.3 0.00 0.00 0.00 77 1010.5
20260903003006 85 187 2.6 6.1 0.00 0.00 0.00 77 1010.5
20260903002504 86 213 1.7 2.6 0.00 0.00 0.00 76 1010.5
20260903002006 86 210 2.6 5.2 0.00 0.00 0.00 76 1010.5
20260903001504 86 199 1.7 5.2 0.00 0.00 0.00 76 1010.5
20260903001005 86 217 2.6 6.1 0.00 0.00 0.00 75 1010.5
20260903000505 87 198 0.9 2.6 0.00 0.00 0.00 74 1010.6
20260903000004 87 197 1.7 4.3 0.00 0.00 0.00 73 1010.6
20260902235005 88 196 2.6 5.2 0.00 0.00 0.00 71 1010.6
20260902234504 88 201 1.7 5.2 0.00 0.00 0.00 71 1010.7
20260902233504 88 191 2.6 10.4 0.00 0.00 0.00 70 1010.7
20260902233005 89 227 4.3 7.0 0.00 0.00 0.00 69 1010.8
20260902232505 89 207 3.5 7.0 0.00 0.00 0.00 70 1010.8
20260902232006 89 226 3.5 7.8 0.00 0.00 0.00 70 1010.8
20260902231505 89 229 4.3 7.8 0.00 0.00 0.00 69 1010.8
20260902231005 90 223 2.6 10.4 0.00 0.00 0.00 69 1010.8
20260902230506 90 214 5.2 10.4 0.00 0.00 0.00 69 1010.8
20260902230005 90 218 5.2 10.4 0.00 0.00 0.00 68 1010.8
20260902225006 91 217 5.2 10.4 0.00 0.00 0.00 67 1010.8
20260902224504 91 218 5.2 10.4 0.00 0.00 0.00 66 1010.7
20260902224005 91 205 4.3 7.0 0.00 0.00 0.00 65 1010.8
20260902223504 92 210 4.3 8.7 0.00 0.00 0.00 65 1010.8
20260902223005 92 227 3.5 7.0 0.00 0.00 0.00 65 1010.9
20260902222005 92 225 5.2 7.8 0.00 0.00 0.00 64 1010.9
20260902221504 92 233 5.2 10.4 0.00 0.00 0.00 63 1010.9
20260902221005 92 241 3.5 10.4 0.00 0.00 0.00 63 1010.9
20260902220504 92 225 5.2 10.4 0.00 0.00 0.00 63 1010.9
20260902220004 92 191 4.3 10.4 0.00 0.00 0.00 63 1010.9
20260902215005 92 233 5.2 11.3 0.00 0.00 0.00 63 1010.9
20260902214504 93 228 6.1 10.4 0.00 0.00 0.00 62 1010.9
20260902213006 92 209 6.1 10.4 0.00 0.00 0.00 63 1010.9
20260902212504 93 211 5.2 8.7 0.00 0.00 0.00 63 1010.9
20260902212005 92 225 5.2 11.3 0.00 0.00 0.00 63 1010.9
20260902211504 92 220 8.7 13.0 0.00 0.00 0.00 63 1010.9
20260902211006 92 236 6.1 12.2 0.00 0.00 0.00 62 1011.0
20260902210505 93 225 7.8 13.0 0.00 0.00 0.00 63 1011.0
20260902210004 93 212 5.2 12.2 0.00 0.00 0.00 63 1011.0
20260902205504 93 218 5.2 12.2 0.00 0.00 0.00 62 1011.1
20260902205005 93 185 5.2 8.7 0.00 0.00 0.00 61 1011.1
20260902204505 93 217 7.0 11.3 0.00 0.00 0.00 60 1011.2
20260902204005 93 212 5.2 10.4 0.00 0.00 0.00 62 1011.3
20260902203504 93 230 7.0 12.2 0.00 0.00 0.00 61 1011.3
20260902203005 93 220 6.1 11.3 0.00 0.00 0.00 61 1011.4
20260902202005 93 231 6.1 12.2 0.00 0.00 0.00 60 1011.4
20260902201505 93 206 5.2 12.2 0.00 0.00 0.00 60 1011.4
20260902200505 93 191 5.2 10.4 0.00 0.00 0.00 60 1011.4
20260902200004 93 196 6.1 10.4 0.00 0.00 0.00 59 1011.5
20260902195506 93 198 5.2 8.7 0.00 0.00 0.00 59 1011.5
20260902195005 93 204 4.3 11.3 0.00 0.00 0.00 59 1011.5
20260902194504 93 190 6.1 12.2 0.00 0.00 0.00 59 1011.6
20260902194005 93 223 5.2 12.2 0.00 0.00 0.00 60 1011.6
20260902193504 93 212 5.2 11.3 0.00 0.00 0.00 58 1011.7
20260902193004 93 168 4.3 10.4 0.00 0.00 0.00 59 1011.8
20260902192504 93 210 4.3 10.4 0.00 0.00 0.00 58 1011.8
20260902192005 94 189 5.2 10.4 0.00 0.00 0.00 57 1011.9
20260902191504 94 197 4.3 12.2 0.00 0.00 0.00 59 1011.9
20260902191004 94 208 4.3 8.7 0.00 0.00 0.00 59 1011.9
20260902190505 94 211 2.6 7.0 0.00 0.00 0.00 60 1012.0
20260902190004 93 226 6.1 10.4 0.00 0.00 0.00 57 1012.0
20260902185504 93 225 5.2 10.4 0.00 0.00 0.00 57 1011.9
20260902185005 93 187 5.2 10.4 0.00 0.00 0.00 58 1011.9
20260902184504 93 207 7.0 11.3 0.00 0.00 0.00 58 1011.9
20260902184005 93 198 6.1 10.4 0.00 0.00 0.00 58 1012.0
20260902183504 92 215 6.1 10.4 0.00 0.00 0.00 59 1012.0
20260902182504 93 234 4.3 10.4 0.00 0.00 0.00 58 1012.1
20260902181504 92 189 6.1 10.4 0.00 0.00 0.00 59 1012.3
20260902181005 92 228 5.2 10.4 0.00 0.00 0.00 61 1012.3
20260902175504 92 188 4.3 8.7 0.00 0.00 0.00 61 1012.5
20260902175005 92 228 6.1 10.4 0.00 0.00 0.00 58 1012.6
20260902174503 92 200 6.1 13.0 0.00 0.00 0.00 61 1012.5
20260902174005 92 249 6.1 13.0 0.00 0.00 0.00 61 1012.7
20260902173504 92 193 5.2 10.4 0.00 0.00 0.00 62 1012.7
20260902173005 92 241 5.2 11.3 0.00 0.00 0.00 62 1012.7
20260902172507 92 198 4.3 12.2 0.00 0.00 0.00 62 1012.8
20260902172007 92 213 5.2 7.0 0.00 0.00 0.00 62 1012.8
20260902171507 91 213 5.2 8.7 0.00 0.00 0.00 63 1012.8
20260902171008 91 202 6.1 11.3 0.00 0.00 0.00 63 1012.9
20260902170507 91 217 5.2 10.4 0.00 0.00 0.00 63 1012.9
20260902170007 91 206 3.5 7.0 0.00 0.00 0.00 66 1012.9
20260902165506 90 213 5.2 10.4 0.00 0.00 0.00 64 1013.0
20260902165008 91 186 5.2 7.8 0.00 0.00 0.00 65 1013.0
20260902164507 91 223 4.3 8.7 0.00 0.00 0.00 65 1013.1
20260902164008 90 239 3.5 7.8 0.00 0.00 0.00 66 1013.1
20260902163506 90 225 3.5 7.8 0.00 0.00 0.00 65 1013.1
20260902163007 90 235 5.2 10.4 0.00 0.00 0.00 65 1013.1
20260902162507 90 196 4.3 8.7 0.00 0.00 0.00 66 1013.1
20260902162008 89 219 4.3 10.4 0.00 0.00 0.00 67 1013.2
20260902161008 89 177 4.3 7.8 0.00 0.00 0.00 68 1013.3
20260902160506 89 222 4.3 8.7 0.00 0.00 0.00 68 1013.3
20260902155507 88 243 7.0 10.4 0.00 0.01 0.00 68 1013.3
20260902155008 88 213 6.1 10.4 0.00 0.01 0.00 68 1013.3
20260902154506 88 231 4.3 7.8 0.00 0.01 0.00 69 1013.4
20260902154008 88 216 4.3 7.0 0.00 0.01 0.00 70 1013.4
20260902153007 87 209 2.6 7.8 0.00 0.01 0.00 70 1013.5
20260902152506 87 201 4.3 7.8 0.00 0.01 0.00 70 1013.4
20260902152008 87 176 4.3 6.1 0.00 0.01 0.00 71 1013.4
20260902151506 86 221 2.6 10.4 0.00 0.01 0.00 72 1013.4
20260902151007 86 225 4.3 7.8 0.00 0.01 0.00 72 1013.3
20260902150506 86 223 3.5 6.1 0.00 0.01 0.00 73 1013.3
20260902150006 86 237 2.6 7.0 0.00 0.01 0.00 74 1013.4
20260902145008 85 219 2.6 8.7 0.00 0.01 0.00 74 1013.4
20260902144506 84 228 4.3 7.8 0.00 0.01 0.00 74 1013.4
20260902143506 83 286 3.5 7.8 0.00 0.01 0.00 76 1013.3
20260902142007 82 224 5.2 8.7 0.00 0.01 0.00 77 1013.3
20260902141506 82 217 3.5 10.4 0.00 0.01 0.00 77 1013.3
20260902141007 82 232 4.3 8.7 0.00 0.01 0.00 77 1013.3
20260902140507 82 202 5.2 7.8 0.00 0.01 0.00 78 1013.3
20260902140007 81 233 5.2 7.8 0.00 0.01 0.00 78 1013.3
20260902135506 81 237 5.2 8.7 0.00 0.01 0.00 79 1013.3
20260902135007 80 204 3.5 7.8 0.00 0.01 0.00 81 1013.3
20260902134506 80 224 6.1 10.4 0.00 0.01 0.00 81 1013.4
20260902134007 80 197 4.3 7.8 0.00 0.01 0.00 82 1013.4
20260902133506 79 233 5.2 8.7 0.00 0.01 0.00 83 1013.4
20260902133007 79 230 5.2 7.8 0.00 0.01 0.00 83 1013.5
20260902132506 79 226 4.3 7.8 0.00 0.01 0.00 84 1013.6
20260902132007 78 224 4.3 10.4 0.00 0.01 0.00 85 1013.7
20260902131506 78 230 4.3 13.0 0.00 0.01 0.00 86 1013.7
20260902131007 77 229 5.2 10.4 0.00 0.01 0.00 87 1013.6
20260902130506 77 231 5.2 7.0 0.00 0.01 0.00 88 1013.7
20260902130007 76 240 2.6 7.8 0.00 0.01 0.00 89 1013.7
20260902125007 75 212 3.5 6.1 0.00 0.01 0.00 90 1013.6
20260902124506 75 233 3.5 7.0 0.00 0.01 0.00 91 1013.6
20260902124007 75 229 5.2 7.8 0.00 0.01 0.00 92 1013.7
20260902123506 74 221 3.5 5.2 0.00 0.01 0.00 93 1013.6
20260902123007 74 233 4.3 6.1 0.00 0.01 0.00 93 1013.7
20260902122506 74 220 2.6 5.2 0.00 0.01 0.00 93 1013.7
20260902122007 74 231 2.6 5.2 0.00 0.01 0.00 94 1013.7
20260902121507 74 230 3.5 4.3 0.00 0.01 0.00 94 1013.8
20260902121009 73 232 2.6 4.3 0.00 0.01 0.00 94 1013.7
20260902120506 73 221 1.7 4.3 0.00 0.01 0.00 94 1013.7
20260902120006 73 216 1.7 5.2 0.00 0.01 0.00 94 1013.7
20260902115508 73 221 0.9 4.3 0.00 0.01 0.00 94 1013.7
20260902115006 73 226 2.6 4.3 0.00 0.01 0.00 94 1013.6
20260902114506 73 221 1.7 4.3 0.00 0.01 0.00 94 1013.6
20260902114007 73 207 0.0 0.0 0.00 0.01 0.00 94 1013.6
20260902112506 73 205 0.0 0.0 0.00 0.01 0.00 94 1013.5
20260902112007 73 205 0.0 0.0 0.00 0.01 0.00 94 1013.4
20260902111007 73 205 0.0 0.0 0.00 0.01 0.00 93 1013.4
20260902110506 73 205 0.0 0.0 0.00 0.01 0.00 93 1013.4
20260902110008 73 205 0.0 0.0 0.00 0.01 0.00 93 1013.4
20260902105506 73 205 0.0 0.0 0.00 0.01 0.00 93 1013.4
20260902105006 73 205 0.0 0.0 0.00 0.01 0.00 93 1013.3
20260902104506 73 205 0.0 0.0 0.00 0.01 0.00 93 1013.3
20260902104007 73 205 0.0 0.0 0.00 0.01 0.00 93 1013.3
20260902103506 73 205 0.0 0.0 0.00 0.01 0.00 93 1013.3
20260902102505 73 204 0.0 0.0 0.00 0.01 0.00 92 1013.2
20260902102007 73 204 0.0 0.0 0.00 0.01 0.00 92 1013.2
20260902101506 73 204 0.0 0.0 0.00 0.01 0.00 92 1013.1
20260902101007 73 204 0.0 0.0 0.00 0.01 0.00 92 1013.1
20260902100505 73 204 0.0 0.0 0.00 0.01 0.00 92 1013.1
20260902100006 74 204 0.0 0.0 0.00 0.01 0.00 92 1013.3
20260902095505 74 204 0.0 0.0 0.00 0.01 0.00 92 1013.1
20260902095007 74 203 0.0 0.9 0.00 0.01 0.00 92 1013.0
20260902094506 74 204 0.0 1.7 0.00 0.01 0.00 92 1012.9
20260902094006 74 200 1.7 2.6 0.00 0.01 0.00 92 1012.9
20260902093506 74 196 0.9 4.3 0.00 0.01 0.00 91 1012.9
20260902093007 74 228 0.0 0.0 0.00 0.01 0.00 91 1012.9
20260902092006 74 228 0.0 0.0 0.00 0.01 0.00 91 1012.8
20260902091506 74 228 0.0 0.0 0.00 0.01 0.00 91 1012.8
20260902090506 74 228 0.0 0.0 0.00 0.01 0.00 91 1012.7
20260902090006 74 228 0.0 0.0 0.00 0.01 0.00 91 1012.7
20260902085506 75 228 0.0 0.0 0.00 0.01 0.00 91 1012.7
20260902085006 75 229 0.0 0.0 0.00 0.01 0.00 91 1012.8
20260902084506 75 228 0.0 0.0 0.00 0.01 0.00 91 1012.8
20260902084006 75 229 0.0 0.0 0.00 0.01 0.00 91 1012.8
20260902083506 75 229 0.0 0.0 0.00 0.01 0.00 90 1012.8
20260902083006 75 228 0.0 2.6 0.00 0.01 0.00 90 1012.8
20260902082505 75 229 0.0 0.0 0.00 0.01 0.00 90 1012.8
20260902081506 75 229 0.9 2.6 0.00 0.01 0.00 90 1012.8
20260902081006 76 232 0.0 4.3 0.00 0.01 0.00 90 1012.8
20260902080505 76 237 0.0 4.3 0.00 0.01 0.00 90 1012.8
20260902080006 76 233 0.9 4.3 0.00 0.01 0.00 90 1012.8
20260902075505 76 223 1.7 4.3 0.00 0.01 0.00 90 1012.8
20260902075007 76 245 0.0 0.0 0.00 0.01 0.00 90 1012.7
20260902074505 76 244 0.0 0.0 0.00 0.01 0.00 90 1012.8
20260902074007 76 244 0.0 0.0 0.00 0.01 0.00 90 1012.7
20260902073505 76 244 0.0 0.0 0.00 0.01 0.00 90 1012.7
20260902073006 76 240 0.0 4.3 0.00 0.01 0.00 90 1012.7
20260902072505 76 228 1.7 4.3 0.00 0.01 0.00 90 1012.7
20260902072007 76 223 0.9 6.1 0.00 0.01 0.00 90 1012.7
20260902070505 76 219 0.0 0.0 0.00 0.01 0.00 89 1012.5
20260902070007 76 219 0.0 0.0 0.00 0.01 0.00 89 1012.6
20260902064506 77 219 0.0 0.0 0.00 0.01 0.00 89 1012.5
20260902064006 77 219 0.0 0.0 0.00 0.01 0.00 89 1012.4
20260902063506 77 219 0.0 0.0 0.00 0.01 0.00 89 1012.5
20260902063006 77 219 0.0 0.0 0.00 0.01 0.00 89 1012.5
20260902061506 77 219 0.9 1.7 0.00 0.01 0.00 89 1012.7
20260902061006 77 219 0.0 0.0 0.00 0.01 0.00 89 1012.7
20260902060005 78 219 0.0 0.0 0.00 0.01 0.00 89 1012.8
20260902055505 78 219 0.0 0.0 0.00 0.01 0.00 89 1012.8
20260902054505 78 219 0.0 1.7 0.00 0.01 0.00 88 1012.8
20260902053505 78 223 0.0 0.0 0.00 0.01 0.00 88 1012.8
20260902053006 78 222 0.0 0.0 0.00 0.01 0.00 88 1012.8
20260902052505 78 222 0.0 0.0 0.00 0.01 0.00 88 1012.8
20260902052006 78 221 0.0 0.0 0.00 0.01 0.00 87 1012.8
20260902051505 78 221 0.0 0.0 0.00 0.01 0.00 87 1012.8
20260902051006 78 221 0.0 0.0 0.00 0.01 0.00 87 1012.8
20260902050505 79 221 0.0 0.0 0.00 0.01 0.00 87 1012.8
20260902050008 79 221 0.0 2.6 0.00 0.01 0.00 87 1012.8
20260902045505 79 221 0.9 4.3 0.00 0.01 0.00 87 1012.8
20260902045006 79 223 0.9 2.6 0.00 0.01 0.00 87 1012.8
20260902044505 79 219 0.9 2.6 0.00 0.01 0.00 87 1012.8
20260902044006 79 220 1.7 2.6 0.00 0.01 0.00 87 1012.8
20260902043505 79 225 0.9 5.2 0.00 0.01 0.00 86 1012.8
20260902043006 79 229 1.7 4.3 0.00 0.01 0.00 86 1012.8
20260902042505 79 243 1.7 6.1 0.00 0.01 0.00 86 1012.8
20260902042006 80 241 0.9 2.6 0.00 0.01 0.00 86 1012.7
20260902041505 80 244 0.0 5.2 0.00 0.01 0.00 86 1012.7
20260902041006 80 222 0.0 2.6 0.00 0.01 0.00 86 1012.7
20260902040505 80 222 0.0 2.6 0.00 0.01 0.00 86 1012.7
20260902035505 80 223 1.7 4.3 0.00 0.01 0.01 86 1012.7
20260902034505 80 220 1.7 4.3 0.00 0.01 0.01 86 1012.7
20260902034006 80 227 2.6 4.3 0.00 0.01 0.01 86 1012.7
20260902033505 80 236 2.6 7.0 0.00 0.01 0.01 86 1012.7
20260902032505 81 203 1.7 4.3 0.00 0.01 0.01 86 1012.6
20260902032006 81 223 2.6 5.2 0.00 0.01 0.01 86 1012.6
20260902031505 81 206 1.7 4.3 0.00 0.01 0.01 86 1012.6
20260902031006 81 245 1.7 6.1 0.00 0.01 0.01 86 1012.6
20260902030505 81 225 1.7 4.3 0.00 0.01 0.01 86 1012.5
20260902030005 81 223 1.7 7.0 0.00 0.01 0.01 86 1012.5
20260902025505 81 214 0.9 4.3 0.00 0.01 0.01 86 1012.5
20260902024504 81 193 1.7 5.2 0.00 0.01 0.01 87 1012.5
20260902024006 81 184 0.9 5.2 0.00 0.01 0.01 87 1012.5
20260902023505 81 216 2.6 5.2 0.00 0.01 0.01 87 1012.5
20260902023007 81 189 1.7 4.3 0.00 0.01 0.01 87 1012.5
20260902022505 81 194 0.9 2.6 0.00 0.01 0.01 87 1012.4
20260902022006 81 188 1.7 2.6 0.00 0.01 0.01 87 1012.4
20260902021505 81 188 0.9 2.6 0.00 0.01 0.01 87 1012.4
20260902021005 81 192 1.7 2.6 0.00 0.01 0.01 87 1012.5
20260902020505 81 196 0.9 2.6 0.00 0.01 0.01 86 1012.6
20260902020005 81 196 0.0 2.6 0.00 0.01 0.01 86 1012.6
20260902015505 81 190 0.0 0.0 0.00 0.01 0.01 86 1012.6
20260902015005 81 189 0.0 0.0 0.00 0.01 0.01 86 1012.6
20260902014006 81 182 0.0 0.0 0.00 0.01 0.01 86 1012.6
20260902013006 82 182 0.0 0.0 0.00 0.01 0.01 85 1012.6
20260902012505 82 182 0.0 0.0 0.00 0.01 0.01 84 1012.6
20260902012006 82 182 0.0 0.0 0.00 0.01 0.01 84 1012.6